DECAYED

OBJECT Q, 54751 (Decayed)

Orbit data source: Space-Track

You're viewing an Uncataloged Satellite

Recently launched and/or uncataloged satellites may have evolving metadata. Metadata may include but not limited to: Owner, Maufacturer, Bus, Motor, and Mission.

OBJECT Q, 54751 was a satellite owned by Changguang WJ (CN) in LEO that was launched on Fri, 09 Dec 2022 UTC via a JIELONG-3 launch vehicle from the Yellow Sea Launch Area, China (YSLA). Unknown objects in Earth's orbit typically refer to objects detected orbiting the Earth but have not yet been identified or cataloged. These objects could be anything from previously untracked satellites, spent rocket stages, debris from satellite collisions, or even natural meteoroids temporarily captured by Earth's gravity. This object's orbit decayed before it could be identified.

Not visible in the next 10 days
Identifier
54751, 2022-167Q
Orbit
Decayed
Country
Flag of CNCN / PRC
Related business
Manufacturer
Changguang WJ
Mission
Decayed Commercial Imaging
Bus & Motor
JL-1, Unknown motor
Mass
42 kg wet, 42 kg dry
Launch date (UTC)
2022-12-09 (4 years ago)
Launch vehicle
JIELONG-3
Launch site
Yellow Sea Launch Area, China (YSLA)
Object type
Unknown
Shape & HBR
Box + 2 Pan, 0.8 m
Radar Cross Section
2.000 m², Medium (>0.1 m² and < 1m²)

Expand to show TLE details & history
Last TLE update: 1 year ago

TLE from 1 year ago
0 OBJECT Q
1 54751U 22167Q   25150.43247673  .07419421  26595-5  85623-3 0  9996
2 54751  97.6074 320.3733 0014247 256.9785 102.9922 16.36535842137737
Epoch: 2025-05-30T10:22Z
TLE epoch observation values (Epoch: 2025-05-30T10:22:45.989Z)
Latitude
0.00002°
Longitude
-83.50562°
Altitude
180.386 km
Speed
7.797 km/s
True Right ascension
21h 21m 29s
True Declination
0° 00' 00"
Sunlit
Object was in full shadow at epoch
Visualization orbit readout
Latitude
Unknown
Longitude
Unknown
Altitude
Unknown
Speed
Unknown
Apparent Right ascension
Unknown
Apparent Declination
Unknown
Sunlit
N/A
Visualization observer readout
Local Sidereal Time
21:23:43
Azimuth
Unknown
Elevation
Unknown
Doppler factor
Unknown
Orbital elements
Apogee altitude
181.187 km
Perigee altitude
162.524 km
Semi-major axis
6,549.992 km
Eccentricity
0.00142
Inclination
97.6074°
RAAN
320.3733°
Arg. of periapsis
256.9785°
True anomaly
103.15122°
Mean anomaly
102.9922°
Eccentric anomaly
103.07171°
Mean motion
4.09432 °/min
Orbital period
87.93 mins
BSTAR
0.00085623
Loading maneuver chart data...
Computing Atmospheric mass density...
Loading historical data...
Loading historical data...
Loading historical data...
Loading historical data...
Loading historical data...
Loading historical data...
Loading historical data...

Documentation

Showing up to 5 results
|